Regional Weather Roundup
Issued by NWS

Home | Current Version | Previous Version | Graphics & Text | Print | Product List | Glossary On
Versions: 1 2 3 4 5 6 7 8 9 10 11 12 13 14 15 16 17 18 19 20 21 22 23 24 25 26 27 28 29 30 31 32 33 34 35 36 37 38 39 40 41 42 43 44 45 46 47 48 49 50
148
ASUS45 KABQ 202101
RWRNM
NEW MEXICO REGIONAL WEATHER ROUNDUP
NATIONAL WEATHER SERVICE ALBUQUERQUE NM
200 PM MST FRI JAN 20 2017

NOTE: "FAIR" MEANS FEW OR NO CLOUDS BELOW 12,000 FEET AGL WITH NO
       SIGNIFICANT WEATHER OR OBSTRUCTIONS TO VISION.

      THIS PRODUCT IS RELEASED AS TWO VERSIONS.  ONE VERSION NEAR
      THE TOP OF THE HOUR CONTAINING PRELIMINARY DATA FROM ALBUQUERQUE
      AND OTHER STATIONS.  A FINAL VERSION WITH ADDITIONAL DATA IS
      ISSUED ABOUT 10 MINUTES AFTER THE HOUR.

NMZ501-503-504-510>518-202200-
NORTHWEST PLATEAU/NORTHCENTRAL MOUNTAINS

CITY           SKY/WX    TMP DP  RH WIND       PRES   REMARKS
FARMINGTON     LGT RAIN  39  25  57 NW3       29.62F
LOS ALAMOS     PTSUNNY   36  16  45 W9G24     29.62F WCI  29
SANTA FE       CLOUDY    42  20  41 W17G29    29.61F
TAOS           CLOUDY    34  16  47 W16       29.58R WCI  23
ANGEL FIRE     LGT SNOW  26  18  72 SW17G25   29.57R WCI  13

$$
NMZ402-403-502-505>509-202200-
WESTCENTRAL MOUNTAINS/SOUTHWEST MOUNTAINS

CITY           SKY/WX    TMP DP  RH WIND       PRES   REMARKS
GALLUP         LGT SNOW  33  29  85 SW8       29.65F FOG     WCI  26
GRANTS         LGT SNOW  35  29  78 CALM      29.67F
SILVER CITY    CLOUDY    47  31  54 W16G24    29.75F

$$
NMZ407-409-411-412-202200-
SOUTHERN DESERTS

CITY           SKY/WX    TMP DP  RH WIND       PRES   REMARKS
DEMING         PTSUNNY   53  33  46 W26G37    29.74F
LAS CRUCES     PTSUNNY   53  32  45 W17G28    29.75F
ALAMOGORDO     PTSUNNY   52  30  43 S13       29.75R
T OR C         FAIR      52  30  43 SW17G26   29.66F

$$
NMZ519>523-202200-
CENTRAL VALLEYS/CENTRAL HIGHLANDS

CITY           SKY/WX    TMP DP  RH WIND       PRES   REMARKS
ALBUQUERQUE    CLOUDY    42  26  53 SW8       29.67F
DOUBLE EAGLE   CLOUDY    41  27  56 SW9       29.66F
MORIARTY ARPT  CLOUDY    39  26  59 W23       29.67R WCI  28
CLINES CORNERS FAIR      33  25  72 W31G43    29.61S WCI  19
BELEN          CLOUDY    45  28  51 SW7       29.67F
SOCORRO        CLOUDY    46  32  59 NW3       29.67F

$$
NMZ524>526-539-540-202200-
SOUTHCENTRAL MOUNTAINS

CITY           SKY/WX    TMP DP  RH WIND       PRES   REMARKS
RUIDOSO        NOT AVBL

$$
NMZ527>531-202200-
NORTHEAST HIGHLANDS/NORTHEAST PLAINS

CITY           SKY/WX    TMP DP  RH WIND       PRES   REMARKS
LAS VEGAS      FAIR      37  19  48 W22G33    29.56F WCI  26
RATON          FAIR      46  14  27 W22G30    29.43S
CLAYTON        FAIR      54  20  26 W16G24    29.42S

$$
NMZ532>537-202200-
EASTCENTRAL PLAINS

CITY           SKY/WX    TMP DP  RH WIND       PRES   REMARKS
TUCUMCARI      FAIR      53  21  28 W36G44    29.51R
CANNON AFB     FAIR      54  24  31 W30G46    29.57S
CLOVIS AIRPORT FAIR      55  27  33 W30G40    29.57S

$$
NMZ028-029-538-202200-
SOUTHEAST PLAINS

CITY           SKY/WX    TMP DP  RH WIND       PRES   REMARKS
ROSWELL        FAIR      62  24  23 W16G24    29.62F
ARTESIA        FAIR      61  28  29 SW25G35   29.63F
CARLSBAD       FAIR      61  26  26 W13       29.66F
HOBBS          SUNNY     55  25  30 W26G32    29.66F


$$




USA.gov is the U.S. government's official web portal to all federal, state and local government web resources and services.